Weather History for Buffalo, WY

Change the Weather History Date:

Thursday, February 21, 2013

  Actual Average Record
Temperature  
Mean Temperature 19 °F 29 °F  
Max Temperature 24 °F 39 °F 60 °F (2000)
Min Temperature 14 °F 18 °F -3 °F (2011)
Degree Days  
Heating Degree Days 46 36  
Month to date heating degree days 793 786  
Since 1 July heating degree days 4671 4993  
Cooling Degree Days 0 0  
Month to date cooling degree days 0 0  
Year to date cooling degree days 0 0  
Moisture  
Dew Point 14 °F    
Average Humidity 83    
Maximum Humidity 92    
Minimum Humidity 73    
Precipitation  
Precipitation 0.00 in 0.01 in 0.01 in (2011)
Month to date precipitation 0.12 0.26  
Year to date precipitation 0.60 0.68  
Sea Level Pressure  
Sea Level Pressure 29.95 in    
Wind  
Wind Speed 5 mph (NNW)    
Max Wind Speed 17 mph    
Max Gust Speed 24 mph    
Visibility 10 miles    
Events      
T = Trace of Precipitation, MM = Missing Value Source: NWS Daily Summary

Daily Weather History Graph

Daily Weather History Graph

Search for Another Location

Airport:

Trip Planner

Search our weather history database for the weather conditions in past years. The results will help you decide how hot, cold, wet, or windy it might be!

Date:

Astronomy

Feb. 21, 2013 Rise Set
Actual Time 6:56 AM MST 5:44 PM MST
Civil Twilight 6:27 AM MST 6:14 PM MST
Nautical Twilight 5:53 AM MST 6:47 PM MST
Astronomical Twilight 5:20 AM MST 7:21 PM MST
Moon 1:56 PM MST (2/21) 4:09 AM MST (2/21)
Length of Visible Light 11h 46m
Length of Day
10h 47m
Waxing Gibbous, 84% of the Moon is Illuminated
Feb 21
Waxing Gibbous
Feb 25
Full
Mar 4
Last Quarter
Mar 11
New
Mar 19
First Quarter

Hourly Weather History & Observations

Time (MST) Temp. Windchill Dew Point Humidity Pressure Visibility Wind Dir Wind Speed Gust Speed Precip Events Conditions
12:53 AM 18.0 °F 5.4 °F 15.1 °F 88% 29.93 in 8.0 mi NNW 11.5 mph - N/A   Overcast
1:53 AM 19.0 °F 9.0 °F 16.0 °F 88% 29.94 in 10.0 mi NW 8.1 mph - N/A   Overcast
2:53 AM 18.0 °F 6.9 °F 15.1 °F 88% 29.94 in 9.0 mi NW 9.2 mph - N/A   Overcast
3:24 AM 17.6 °F 5.7 °F 15.8 °F 93% 29.81 in 9.0 mi WNW 10.4 mph - N/A   Overcast
3:37 AM 17.6 °F 5.7 °F 15.8 °F 93% 29.81 in 9.0 mi NW 10.4 mph - N/A   Overcast
3:53 AM 18.0 °F 7.7 °F 15.1 °F 88% 29.95 in 10.0 mi NW 8.1 mph - N/A   Overcast
4:53 AM 19.0 °F 11.1 °F 14.0 °F 81% 29.96 in 10.0 mi NNW 5.8 mph - N/A   Overcast
5:39 AM 19.4 °F 9.5 °F 12.2 °F 74% 29.83 in 10.0 mi NNW 8.1 mph - N/A   Overcast
5:53 AM 19.0 °F 9.0 °F 12.9 °F 77% 29.97 in 10.0 mi NW 8.1 mph - N/A   Overcast
6:53 AM 19.0 °F 8.2 °F 12.9 °F 77% 29.98 in 10.0 mi NW 9.2 mph - N/A   Overcast
7:53 AM 17.1 °F 8.7 °F 14.0 °F 88% 30.00 in 8.0 mi NNW 5.8 mph - N/A   Overcast
8:20 AM 17.6 °F 8.2 °F 12.2 °F 79% 29.86 in 8.0 mi NNW 6.9 mph - N/A   Mostly Cloudy
8:53 AM 19.0 °F - 14.0 °F 81% 30.00 in 8.0 mi Calm Calm - N/A   Scattered Clouds
10:53 AM 19.9 °F 12.1 °F 14.0 °F 78% 30.01 in 10.0 mi North 5.8 mph - N/A   Scattered Clouds
11:53 AM 21.0 °F 16.2 °F 15.1 °F 78% 30.00 in 10.0 mi NNW 3.5 mph - N/A   Overcast
12:53 PM 23.0 °F 15.8 °F 15.1 °F 72% 29.98 in 10.0 mi North 5.8 mph - N/A   Overcast
1:53 PM 23.0 °F 12.4 °F 17.1 °F 78% 29.97 in 10.0 mi North 10.4 mph - N/A   Overcast
2:48 PM 23.0 °F 13.9 °F 15.8 °F 74% 29.85 in 10.0 mi North 8.1 mph - N/A   Overcast
2:53 PM 23.0 °F 13.9 °F 16.0 °F 74% 29.98 in 10.0 mi North 8.1 mph - N/A   Overcast
3:53 PM 21.9 °F 14.5 °F 16.0 °F 78% 29.99 in 10.0 mi NNW 5.8 mph - N/A   Overcast
4:53 PM 21.9 °F 17.2 °F 16.0 °F 78% 29.98 in 8.0 mi NNW 3.5 mph - N/A   Overcast
5:53 PM 19.9 °F - 15.1 °F 81% 29.97 in 10.0 mi Calm Calm - N/A   Scattered Clouds
6:53 PM 17.1 °F - 12.9 °F 84% 29.99 in 10.0 mi Calm Calm - N/A   Scattered Clouds
8:53 PM 19.9 °F - 14.0 °F 78% 29.99 in 10.0 mi Calm Calm - N/A   Overcast
9:53 PM 18.0 °F 12.7 °F 15.1 °F 88% 29.99 in 10.0 mi SW 3.5 mph - N/A   Partly Cloudy
10:53 PM 19.0 °F - 12.9 °F 77% 29.98 in 10.0 mi Calm Calm - N/A   Clear
11:53 PM 16.0 °F - 10.9 °F 81% 29.98 in 10.0 mi Calm Calm - N/A   Clear